GW6098 Weather Reports


time (UTC)temp
F
wind
direction
speed
knots
gust
knots
rain 1hr
in
rain 24hr
in
rain mn
in
humidity
%
barometer
mb
20260504001513 74 355 0.9 3.5 0.00 0.00 0.00 46 1010.1
20260504001356 75 10 0.9 3.5 0.00 0.00 0.00 47 1011.7
20260504000349 75 71 0.9 3.5 0.00 0.00 0.00 45 1012.0
20260504000042 74 32 0.0 3.5 0.00 0.00 0.00 46 1010.3
20260503235849 74 32 0.9 3.5 0.00 0.00 0.00 46 1011.9
20260503234846 74 11 2.6 5.2 0.00 0.00 0.00 44 1012.0
20260503234514 74 360 2.6 5.2 0.00 0.00 0.00 44 1010.5
20260503234345 75 22 2.6 4.3 0.00 0.00 0.00 44 1012.1
20260503233846 75 0 2.6 4.3 0.00 0.00 0.00 44 1012.1
20260503233346 75 355 2.6 4.3 0.00 0.00 0.00 44 1012.1
20260503233010 75 355 1.7 4.3 0.00 0.00 0.00 44 1010.6
20260503232847 75 0 1.7 4.3 0.00 0.00 0.00 45 1012.2
20260503232345 75 350 1.7 4.3 0.00 0.00 0.00 45 1012.1
20260503231842 75 10 1.7 3.5 0.00 0.00 0.00 44 1012.1
20260503231516 74 352 1.7 4.3 0.00 0.00 0.00 45 1010.8
20260503231343 74 355 1.7 4.3 0.00 0.00 0.00 43 1012.1
20260503230842 75 21 2.6 4.3 0.00 0.00 0.00 45 1012.3
20260503230342 74 9 2.6 4.3 0.00 0.00 0.00 44 1012.3
20260503230015 74 360 1.7 4.3 0.00 0.00 0.00 45 1011.0
20260503225842 74 22 2.6 4.3 0.00 0.00 0.00 47 1012.4
20260503225343 74 5 2.6 4.3 0.00 0.00 0.00 45 1012.5
20260503224838 74 0 2.6 4.3 0.00 0.00 0.00 46 1012.6
20260503224515 74 341 1.7 4.3 0.00 0.00 0.00 45 1011.1
20260503224339 74 28 1.7 4.3 0.00 0.00 0.00 48 1012.7
20260503223838 74 14 1.7 7.0 0.00 0.00 0.00 47 1012.8
20260503223338 74 355 1.7 7.0 0.00 0.00 0.00 47 1012.8
20260503223017 73 5 0.9 4.3 0.00 0.00 0.00 47 1011.4
20260503222838 73 5 1.7 4.3 0.00 0.00 0.00 47 1013.0
20260503222338 74 355 1.7 4.3 0.00 0.00 0.00 46 1013.2
20260503221516 72 5 1.7 4.3 0.00 0.00 0.00 48 1011.5
20260503221338 73 331 2.6 4.3 0.00 0.00 0.00 47 1013.2
20260503220838 73 355 1.7 4.3 0.00 0.00 0.00 48 1013.3
20260503220339 73 346 1.7 4.3 0.00 0.00 0.00 49 1013.3
20260503220010 72 355 0.9 4.3 0.00 0.00 0.00 48 1011.7
20260503215837 73 355 1.7 4.3 0.00 0.00 0.00 49 1013.7
20260503214522 72 17 0.9 4.3 0.00 0.00 0.00 51 1012.1
20260503214338 73 349 1.7 4.3 0.00 0.00 0.00 49 1013.6
20260503213839 73 23 2.6 7.8 0.00 0.00 0.00 50 1014.0
20260503213337 72 339 2.6 7.8 0.00 0.00 0.00 49 1013.9
20260503213019 72 324 2.6 7.8 0.00 0.00 0.00 46 1012.1
20260503212335 73 18 2.6 7.8 0.00 0.00 0.00 46 1013.7
20260503211521 72 346 2.6 7.0 0.00 0.00 0.00 45 1012.1
20260503210022 72 327 1.7 7.0 0.00 0.00 0.00 48 1012.2
20260503205913 72 67 3.5 7.0 0.00 0.00 0.00 48 1013.7
20260503205415 72 22 3.5 0.9 0.00 0.00 0.00 46 1013.8
20260503204518 72 17 3.5 7.0 0.00 0.00 0.00 48 1012.3
20260503203950 72 312 2.6 7.0 0.00 0.00 0.00 50 1014.1
20260503203448 72 335 2.6 7.0 0.00 0.00 0.00 48 1014.1
20260503203029 71 17 0.9 5.2 0.00 0.00 0.00 50 1012.3
20260503202451 71 349 2.6 3.5 0.00 0.00 0.00 50 1013.6
20260503201519 71 352 0.9 6.1 0.00 0.00 0.00 54 1012.3
20260503200932 71 31 2.6 6.1 0.00 0.00 0.00 49 1014.2
20260503200005 71 5 2.6 4.3 0.00 0.00 0.00 51 1012.5
20260503195046 71 9 1.7 3.5 0.00 0.00 0.00 53 1014.0
20260503194545 71 0 2.6 5.2 0.00 0.00 0.00 54 1014.2
20260503194512 71 12 1.7 5.2 0.00 0.00 0.00 54 1012.8
20260503194044 71 9 3.5 6.1 0.00 0.00 0.00 53 1014.3
20260503193544 72 355 3.5 6.1 0.00 0.00 0.00 53 1014.4
20260503193042 72 30 2.6 6.1 0.00 0.00 0.00 55 1014.3
20260503193008 72 342 2.6 6.1 0.00 0.00 0.00 52 1012.8
20260503192541 72 76 1.7 4.3 0.00 0.00 0.00 55 1014.4
20260503191541 71 79 1.7 3.5 0.00 0.00 0.00 55 1014.4
20260503191520 71 32 1.7 3.5 0.00 0.00 0.00 55 1012.9
20260503191037 71 26 1.7 3.5 0.00 0.00 0.00 52 1014.7
20260503190538 70 42 1.7 3.5 0.00 0.00 0.00 55 1014.9
20260503190035 69 57 2.6 5.2 0.00 0.00 0.00 54 1014.8
20260503190017 69 32 1.7 5.2 0.00 0.00 0.00 54 1013.3
20260503184513 69 5 1.7 6.1 0.00 0.00 0.00 57 1013.4
20260503184036 69 11 2.6 6.1 0.00 0.00 0.00 56 1014.9
20260503183531 69 15 2.6 4.3 0.00 0.00 0.00 57 1014.9
20260503183034 69 23 2.6 6.1 0.00 0.00 0.00 58 1014.9
20260503183010 68 11 1.7 6.1 0.00 0.00 0.00 58 1013.5
20260503182531 68 337 2.6 6.1 0.00 0.00 0.00 58 1014.9
20260503182032 68 335 2.6 2.6 0.00 0.00 0.00 58 1014.9
20260503181505 67 35 1.7 7.0 0.00 0.00 0.00 59 1013.6
20260503180839 68 0 2.6 7.0 0.00 0.00 0.00 58 1015.2
20260503180334 69 9 2.6 7.0 0.00 0.00 0.00 59 1015.2
20260503180029 68 9 1.7 5.2 0.00 0.00 0.00 58 1013.7
20260503175827 69 17 2.6 5.2 0.00 0.00 0.00 59 1015.2
20260503175330 69 41 2.6 5.2 0.00 0.00 0.00 57 1015.4
20260503174826 70 5 1.7 1.7 0.00 0.00 0.00 55 1015.4
20260503174522 70 58 1.7 4.3 0.00 0.00 0.00 55 1013.9
20260503173640 68 63 0.9 3.5 0.00 0.00 0.00 59 1015.6
20260503173030 67 22 0.9 3.5 0.00 0.00 0.00 61 1014.0
20260503172139 68 355 1.7 3.5 0.00 0.00 0.00 60 1015.5
20260503171638 67 57 0.9 3.5 0.00 0.00 0.00 60 1015.7
20260503171514 66 44 1.7 3.5 0.00 0.00 0.00 61 1014.1
20260503171140 66 12 1.7 2.6 0.00 0.00 0.00 61 1015.7
20260503170518 65 11 1.7 4.3 0.00 0.00 0.00 61 1015.6
20260503151006 66 340 2.6 7.8 0.00 0.00 0.00 59 1016.1
20260503150507 66 291 2.6 7.8 0.00 0.00 0.00 59 1016.1
20260503131119 55 276 0.9 3.5 0.00 0.00 0.00 72 1015.2
20260503130616 54 338 0.9 3.5 0.00 0.00 0.00 73 1015.5
20260503130117 53 200 0.9 2.6 0.00 0.00 0.00 74 1015.5
20260503110422 56 194 1.7 3.5 0.00 0.00 0.00 73 1015.5
20260503100249 57 180 1.7 3.5 0.00 0.00 0.00 67 1015.5
20260503081518 58 182 1.7 4.3 0.00 0.00 0.00 65 1013.9
20260503081046 58 338 1.7 3.5 0.00 0.00 0.00 63 1015.5
20260503080547 58 164 1.7 1.7 0.00 0.00 0.00 67 1015.4
20260503072635 58 198 1.7 3.5 0.00 0.00 0.00 68 1015.2
20260503072131 59 196 1.7 3.5 0.00 0.00 0.00 67 1015.3
20260503071630 59 196 2.6 3.5 0.00 0.00 0.00 67 1015.3
20260503071518 58 196 1.7 3.5 0.00 0.00 0.00 66 1013.8
20260503071130 59 195 1.7 3.5 0.00 0.00 0.00 66 1015.3
20260503070628 59 184 2.6 4.3 0.00 0.00 0.00 65 1015.2
20260503070128 59 182 2.6 4.3 0.00 0.00 0.00 65 1015.2
20260503055101 60 182 1.7 2.6 0.00 0.00 0.00 63 1015.3
20260503054602 60 182 1.7 2.6 0.00 0.00 0.00 64 1015.4
20260503054520 59 182 0.9 2.6 0.00 0.00 0.00 64 1013.8
20260503054103 60 182 1.7 3.5 0.00 0.00 0.00 64 1015.3
20260503053602 60 182 1.7 3.5 0.00 0.00 0.00 65 1015.3
20260503053106 60 182 1.7 2.6 0.00 0.00 0.00 63 1015.4
20260503053017 59 182 1.7 3.5 0.00 0.00 0.00 63 1013.8
20260503051717 60 193 1.7 3.5 0.00 0.00 0.00 64 1015.3
20260503051521 59 193 0.9 3.5 0.00 0.00 0.00 64 1013.8
20260503051216 60 193 1.7 3.5 0.00 0.00 0.00 65 1015.4
20260503050716 60 182 1.7 3.5 0.00 0.00 0.00 65 1015.5
20260503050026 59 182 1.7 2.6 0.00 0.00 0.00 65 1013.8
20260503045718 60 182 1.7 2.6 0.00 0.00 0.00 65 1015.4
20260503044717 60 182 1.7 3.5 0.00 0.00 0.00 66 1015.2
20260503044528 60 182 1.7 3.5 0.00 0.00 0.00 65 1013.7
20260503044218 60 182 1.7 3.5 0.00 0.00 0.00 65 1015.3
20260503043720 60 182 1.7 3.5 0.00 0.00 0.00 65 1015.3
20260503043221 60 184 0.9 2.6 0.00 0.00 0.00 65 1015.3
20260503043022 60 184 0.0 1.7 0.00 0.00 0.00 64 1013.6
20260503042720 60 184 0.9 2.6 0.00 0.00 0.00 64 1015.3
20260503041522 60 184 0.9 2.6 0.00 0.00 0.00 63 1013.5
20260503041207 60 184 1.7 2.6 0.00 0.00 0.00 62 1015.1
20260503040707 60 184 0.9 3.5 0.00 0.00 0.00 62 1015.1
20260503040209 60 184 0.9 3.5 0.00 0.00 0.00 62 1015.1
20260503040027 60 184 0.0 0.9 0.00 0.00 0.00 62 1013.4
20260503035708 61 184 0.0 1.7 0.00 0.00 0.00 63 1015.1
20260503034705 61 184 0.9 2.6 0.00 0.00 0.00 61 1015.0
20260503034514 61 184 0.0 1.7 0.00 0.00 0.00 61 1013.3
20260503034205 62 184 0.9 1.7 0.00 0.00 0.00 61 1014.9
20260503033706 62 184 1.7 1.7 0.00 0.00 0.00 61 1014.9
20260503033206 62 184 1.7 1.7 0.00 0.00 0.00 61 1014.8
20260503033013 62 184 0.9 1.7 0.00 0.00 0.00 60 1013.1
20260503032705 62 184 1.7 2.6 0.00 0.00 0.00 61 1014.9
20260503032204 63 184 1.7 2.6 0.00 0.00 0.00 62 1014.8
20260503031704 63 184 1.7 2.6 0.00 0.00 0.00 61 1014.9
20260503031508 63 184 0.9 2.6 0.00 0.00 0.00 61 1013.1
20260503031203 64 184 1.7 2.6 0.00 0.00 0.00 60 1015.1
20260503030704 64 184 1.7 2.6 0.00 0.00 0.00 61 1015.1
20260503030204 65 184 1.7 2.6 0.00 0.00 0.00 61 1015.1
20260503030004 65 184 0.9 2.6 0.00 0.00 0.00 60 1013.1
20260503025703 66 184 1.7 3.5 0.00 0.00 0.00 61 1015.1
20260503025204 66 183 0.9 3.5 0.00 0.00 0.00 59 1015.0
20260503024504 67 251 0.0 0.0 0.00 0.00 0.00 59 1013.1
20260503024152 68 251 0.0 0.0 0.00 0.00 0.00 60 1015.0
20260503023652 68 251 0.0 0.0 0.00 0.00 0.00 58 1015.0
20260503023152 69 251 0.0 0.0 0.00 0.00 0.00 58 1015.1
20260503023013 69 251 0.0 0.0 0.00 0.00 0.00 56 1013.1
20260503022653 69 251 0.0 0.0 0.00 0.00 0.00 56 1015.1
20260503022152 70 251 0.0 0.0 0.00 0.00 0.00 55 1015.2
20260503021652 71 251 0.0 0.0 0.00 0.00 0.00 54 1015.2
20260503021517 70 251 0.0 0.9 0.00 0.00 0.00 52 1013.1
20260503021153 71 251 0.0 0.9 0.00 0.00 0.00 53 1015.2
20260503020651 71 251 0.0 1.7 0.00 0.00 0.00 49 1014.8
20260503020012 71 251 0.0 1.7 0.00 0.00 0.00 47 1013.3
20260503015648 72 274 0.0 2.6 0.00 0.00 0.00 49 1014.8
20260503014648 72 321 0.9 2.6 0.00 0.00 0.00 47 1014.9
20260503014511 72 321 0.0 2.6 0.00 0.00 0.00 46 1013.3
20260503014148 72 321 0.9 2.6 0.00 0.00 0.00 44 1014.9
20260503013146 72 345 1.7 4.3 0.00 0.00 0.00 45 1015.1
20260503013008 71 347 0.9 4.3 0.00 0.00 0.00 45 1013.4
20260503012147 71 5 2.6 5.2 0.00 0.00 0.00 48 1015.1
20260503011507 71 21 2.6 4.3 0.00 0.00 0.00 48 1013.5
20260503011145 71 9 0.9 3.5 0.00 0.00 0.00 50 1015.1
20260503010648 71 5 0.9 3.5 0.00 0.00 0.00 49 1015.1
20260503010146 71 11 0.9 3.5 0.00 0.00 0.00 48 1015.2
20260503010030 71 23 0.0 2.6 0.00 0.00 0.00 48 1013.5
20260503005642 71 23 1.7 3.5 0.00 0.00 0.00 50 1015.7
20260503005142 71 26 0.9 3.5 0.00 0.00 0.00 49 1015.2
20260503004517 71 46 0.0 2.6 0.00 0.00 0.00 48 1013.5
20260503004142 71 70 0.9 2.6 0.00 0.00 0.00 49 1015.3
20260503003641 71 81 0.9 3.5 0.00 0.00 0.00 49 1015.8
20260503003142 71 87 0.9 3.5 0.00 0.00 0.00 48 1015.7
20260503003016 71 352 0.9 2.6 0.00 0.00 0.00 48 1013.5